date,time,SUV Intensity [MED/Hr],UV Index,Daily total [MED],Since Last [MED]
16/02/2022,09:50:50,0.195,0.0,0.159,0.159
16/02/2022,09:55:04,0.203,0.0,0.173,0.014
16/02/2022,09:56:30,0.201,0.0,0.178,0.005
16/02/2022,10:03:49,0.229,1.0,0.204,0.026
16/02/2022,10:04:43,0.230,1.0,0.208,0.004
16/02/2022,10:05:44,0.235,1.0,0.212,0.004
16/02/2022,10:06:43,0.237,1.0,0.216,0.004
16/02/2022,10:07:44,0.239,1.0,0.22,0.004
16/02/2022,10:08:37,0.243,1.0,0.223,0.003
16/02/2022,10:09:45,0.247,1.0,0.228,0.005
16/02/2022,10:10:44,0.249,1.0,0.232,0.004
16/02/2022,10:11:44,0.253,1.0,0.236,0.004
16/02/2022,10:12:43,0.254,1.0,0.24,0.004
16/02/2022,10:13:43,0.256,1.0,0.245,0.005
16/02/2022,10:14:44,0.258,1.0,0.249,0.004
16/02/2022,10:15:44,0.261,1.0,0.253,0.004
16/02/2022,10:16:43,0.263,1.0,0.258,0.005
16/02/2022,10:17:44,0.267,1.0,0.262,0.004
16/02/2022,10:18:44,0.270,1.0,0.266,0.004
16/02/2022,10:19:44,0.274,1.0,0.271,0.005
16/02/2022,10:20:52,0.276,1.0,0.276,0.005
16/02/2022,10:21:43,0.279,1.0,0.28,0.004
16/02/2022,10:22:44,0.281,1.0,0.285,0.005
16/02/2022,10:23:43,0.283,1.0,0.29,0.005
16/02/2022,10:24:44,0.287,1.0,0.294,0.004
16/02/2022,10:25:44,0.291,1.0,0.299,0.005
16/02/2022,10:26:52,0.293,1.0,0.305,0.006
16/02/2022,10:27:42,0.296,1.0,0.309,0.004
16/02/2022,10:28:44,0.299,1.0,0.314,0.005
16/02/2022,10:29:43,0.301,1.0,0.319,0.005
16/02/2022,10:30:52,0.304,1.0,0.325,0.006
16/02/2022,10:31:43,0.307,1.0,0.329,0.004
16/02/2022,10:32:53,0.309,1.0,0.335,0.006
16/02/2022,10:33:43,0.312,1.0,0.339,0.004
16/02/2022,10:34:43,0.314,1.0,0.344,0.005
16/02/2022,10:35:43,0.316,1.0,0.35,0.006
16/02/2022,10:36:43,0.318,1.0,0.355,0.005
16/02/2022,10:37:44,0.323,1.0,0.36,0.005
16/02/2022,10:38:44,0.325,1.0,0.366,0.006
16/02/2022,10:39:44,0.330,1.0,0.371,0.005
16/02/2022,10:40:44,0.333,1.0,0.377,0.006
16/02/2022,10:41:43,0.337,1.0,0.382,0.005
16/02/2022,10:42:44,0.340,1.0,0.388,0.006
16/02/2022,10:43:43,0.343,1.0,0.394,0.006
16/02/2022,10:44:44,0.345,1.0,0.399,0.005
16/02/2022,10:45:52,0.348,1.0,0.406,0.007
16/02/2022,10:46:42,0.350,1.0,0.411,0.005
16/02/2022,10:47:44,0.355,1.0,0.417,0.006
16/02/2022,10:48:53,0.355,1.0,0.424,0.007
16/02/2022,10:50:45,0.363,1.0,0.435,0.011
16/02/2022,10:51:51,0.367,1.0,0.442,0.007
16/02/2022,10:52:43,0.372,1.0,0.447,0.005
16/02/2022,10:53:44,0.376,1.0,0.453,0.006
16/02/2022,10:54:52,0.380,1.0,0.46,0.007
16/02/2022,10:55:42,0.382,1.0,0.466,0.006
16/02/2022,10:56:44,0.385,1.0,0.472,0.006
16/02/2022,10:57:44,0.387,1.0,0.479,0.007
16/02/2022,10:58:44,0.391,1.0,0.485,0.006
16/02/2022,10:59:44,0.400,1.0,0.492,0.007
16/02/2022,11:00:44,0.399,1.0,0.498,0.006
16/02/2022,11:01:44,0.402,1.0,0.505,0.007
16/02/2022,11:02:44,0.407,1.0,0.512,0.007
16/02/2022,11:03:44,0.415,1.0,0.518,0.006
16/02/2022,11:04:44,0.420,1.0,0.525,0.007
16/02/2022,11:05:44,0.428,1.0,0.532,0.007
16/02/2022,11:06:44,0.418,1.0,0.539,0.007
16/02/2022,11:07:44,0.423,1.0,0.546,0.007
16/02/2022,11:09:00,0.393,1.0,0.554,0.008
16/02/2022,11:10:45,0.314,1.0,0.565,0.011
16/02/2022,11:11:44,0.315,1.0,0.57,0.005
16/02/2022,11:12:44,0.276,1.0,0.575,0.005
16/02/2022,11:13:44,0.270,1.0,0.58,0.005
16/02/2022,11:14:44,0.247,1.0,0.584,0.004
16/02/2022,11:15:44,0.236,1.0,0.588,0.004
16/02/2022,11:16:52,0.226,1.0,0.592,0.004
16/02/2022,11:17:44,0.204,0.0,0.595,0.003
16/02/2022,11:18:44,0.259,1.0,0.599,0.004
16/02/2022,11:19:53,0.227,1.0,0.604,0.005
16/02/2022,11:20:43,0.234,1.0,0.607,0.003
16/02/2022,11:21:43,0.252,1.0,0.612,0.005
16/02/2022,11:22:44,0.270,1.0,0.616,0.004
16/02/2022,11:23:44,0.266,1.0,0.62,0.004
16/02/2022,11:24:44,0.264,1.0,0.625,0.005
16/02/2022,11:25:43,0.322,1.0,0.629,0.004
16/02/2022,11:26:44,0.319,1.0,0.635,0.006
16/02/2022,11:27:43,0.310,1.0,0.64,0.005
16/02/2022,11:28:44,0.349,1.0,0.646,0.006
16/02/2022,11:29:43,0.331,1.0,0.651,0.005
16/02/2022,11:30:44,0.404,1.0,0.657,0.006
16/02/2022,11:31:43,0.472,1.0,0.664,0.007
16/02/2022,11:32:44,0.485,1.0,0.672,0.008
16/02/2022,11:33:44,0.491,1.0,0.68,0.008
16/02/2022,11:34:44,0.497,1.0,0.688,0.008
16/02/2022,11:35:45,0.425,1.0,0.695,0.007
16/02/2022,11:36:44,0.460,1.0,0.703,0.008
16/02/2022,11:37:44,0.511,1.0,0.711,0.008
16/02/2022,11:38:52,0.457,1.0,0.72,0.009
16/02/2022,11:39:44,0.401,1.0,0.726,0.006
16/02/2022,11:41:00,0.434,1.0,0.735,0.009
16/02/2022,11:42:45,0.465,1.0,0.748,0.013
16/02/2022,11:43:46,0.425,1.0,0.756,0.008
16/02/2022,11:44:44,0.493,1.0,0.763,0.007
16/02/2022,11:45:44,0.407,1.0,0.771,0.008
16/02/2022,11:46:44,0.488,1.0,0.778,0.007
16/02/2022,11:47:44,0.379,1.0,0.785,0.007
16/02/2022,11:48:44,0.404,1.0,0.791,0.006
16/02/2022,11:49:43,0.369,1.0,0.798,0.007
16/02/2022,11:50:44,0.333,1.0,0.803,0.005
16/02/2022,11:51:45,0.331,1.0,0.809,0.006
16/02/2022,11:52:44,0.274,1.0,0.814,0.005
16/02/2022,11:53:52,0.223,1.0,0.819,0.005
16/02/2022,11:54:44,0.261,1.0,0.822,0.003
16/02/2022,11:55:44,0.307,1.0,0.827,0.005
16/02/2022,11:56:44,0.233,1.0,0.832,0.005
16/02/2022,11:58:45,0.161,0.0,0.838,0.006
16/02/2022,11:59:52,0.161,0.0,0.841,0.003
16/02/2022,12:00:43,0.160,0.0,0.843,0.002
16/02/2022,12:01:44,0.176,0.0,0.846,0.003
16/02/2022,12:02:45,0.160,0.0,0.849,0.003
16/02/2022,12:03:44,0.163,0.0,0.851,0.002
16/02/2022,12:04:43,0.198,0.0,0.854,0.003
16/02/2022,12:05:44,0.230,1.0,0.858,0.004
16/02/2022,12:06:43,0.235,1.0,0.862,0.004
16/02/2022,12:07:44,0.217,0.0,0.865,0.003
16/02/2022,12:08:53,0.253,1.0,0.87,0.005
16/02/2022,12:09:42,0.222,1.0,0.873,0.003
16/02/2022,12:10:44,0.213,0.0,0.877,0.004
16/02/2022,12:11:44,0.225,1.0,0.88,0.003
16/02/2022,12:12:52,0.226,1.0,0.885,0.005
16/02/2022,12:13:44,0.238,1.0,0.888,0.003
16/02/2022,12:14:44,0.212,0.0,0.892,0.004
16/02/2022,12:15:45,0.218,1.0,0.895,0.003
16/02/2022,12:16:44,0.184,0.0,0.899,0.004
16/02/2022,12:17:44,0.225,1.0,0.902,0.003
16/02/2022,12:18:52,0.217,0.0,0.906,0.004
16/02/2022,12:19:42,0.226,1.0,0.909,0.003
16/02/2022,12:20:44,0.203,0.0,0.913,0.004
16/02/2022,12:21:44,0.186,0.0,0.916,0.003
16/02/2022,12:22:44,0.171,0.0,0.919,0.003
16/02/2022,12:23:44,0.173,0.0,0.922,0.003
16/02/2022,12:24:44,0.163,0.0,0.925,0.003
16/02/2022,12:25:44,0.156,0.0,0.928,0.003
16/02/2022,12:26:44,0.137,0.0,0.93,0.002
16/02/2022,12:27:44,0.123,0.0,0.932,0.002
16/02/2022,12:28:44,0.115,0.0,0.934,0.002
16/02/2022,12:29:44,0.114,0.0,0.936,0.002
16/02/2022,12:30:52,0.110,0.0,0.938,0.002
16/02/2022,12:31:42,0.101,0.0,0.94,0.002
16/02/2022,12:32:44,0.110,0.0,0.941,0.001
16/02/2022,12:33:44,0.108,0.0,0.943,0.002
16/02/2022,12:34:43,0.101,0.0,0.945,0.002
16/02/2022,12:35:43,0.121,0.0,0.947,0.002
16/02/2022,12:36:44,0.124,0.0,0.949,0.002
16/02/2022,12:37:43,0.118,0.0,0.951,0.002
16/02/2022,12:38:44,0.128,0.0,0.953,0.002
16/02/2022,12:39:44,0.127,0.0,0.955,0.002
16/02/2022,12:40:43,0.137,0.0,0.957,0.002
16/02/2022,12:41:44,0.133,0.0,0.959,0.002
16/02/2022,12:42:44,0.150,0.0,0.962,0.003
16/02/2022,12:43:43,0.132,0.0,0.964,0.002
16/02/2022,12:44:46,0.125,0.0,0.966,0.002
16/02/2022,12:45:43,0.128,0.0,0.968,0.002
16/02/2022,12:46:44,0.133,0.0,0.971,0.003
16/02/2022,12:47:52,0.142,0.0,0.973,0.002
16/02/2022,12:48:44,0.137,0.0,0.975,0.002
16/02/2022,12:49:45,0.134,0.0,0.978,0.003
16/02/2022,12:50:52,0.135,0.0,0.98,0.002
16/02/2022,12:51:42,0.137,0.0,0.982,0.002
16/02/2022,12:52:45,0.137,0.0,0.984,0.002
16/02/2022,12:53:44,0.112,0.0,0.986,0.002
16/02/2022,12:54:44,0.148,0.0,0.989,0.003
16/02/2022,12:55:44,0.115,0.0,0.991,0.002
16/02/2022,12:56:43,0.112,0.0,0.993,0.002
16/02/2022,12:57:46,0.103,0.0,0.994,0.001
16/02/2022,12:58:44,0.101,0.0,0.996,0.002
16/02/2022,12:59:44,0.100,0.0,0.998,0.002
16/02/2022,13:00:44,0.092,0.0,0.999,0.001
16/02/2022,13:01:44,0.097,0.0,1.001,0.002
16/02/2022,13:02:43,0.095,0.0,1.002,0.001
16/02/2022,13:03:45,0.094,0.0,1.004,0.002
16/02/2022,13:04:43,0.087,0.0,1.006,0.002
16/02/2022,13:05:45,0.108,0.0,1.007,0.001
16/02/2022,13:06:44,0.099,0.0,1.009,0.002
16/02/2022,13:07:44,0.100,0.0,1.011,0.002
16/02/2022,13:08:44,0.081,0.0,1.012,0.001
16/02/2022,13:09:53,0.100,0.0,1.014,0.002
16/02/2022,13:10:44,0.100,0.0,1.015,0.001
16/02/2022,13:11:44,0.088,0.0,1.017,0.002
16/02/2022,13:12:52,0.095,0.0,1.019,0.002
16/02/2022,13:13:44,0.088,0.0,1.02,0.001
16/02/2022,13:14:45,0.094,0.0,1.021,0.001
16/02/2022,13:15:44,0.094,0.0,1.023,0.002
16/02/2022,13:16:44,0.112,0.0,1.025,0.002
16/02/2022,13:17:44,0.119,0.0,1.027,0.002
16/02/2022,13:18:44,0.144,0.0,1.029,0.002
16/02/2022,13:19:44,0.138,0.0,1.031,0.002
16/02/2022,13:20:44,0.139,0.0,1.033,0.002
16/02/2022,13:21:43,0.127,0.0,1.036,0.003
16/02/2022,13:22:44,0.150,0.0,1.038,0.002
16/02/2022,13:23:35,0.156,0.0,1.04,0.002
16/02/2022,13:24:45,0.179,0.0,1.044,0.004
16/02/2022,13:25:52,0.175,0.0,1.047,0.003
16/02/2022,13:26:42,0.161,0.0,1.049,0.002
16/02/2022,13:27:44,0.184,0.0,1.052,0.003
16/02/2022,13:29:18,0.187,0.0,1.057,0.005
16/02/2022,13:30:44,0.183,0.0,1.061,0.004
16/02/2022,13:31:52,0.197,0.0,1.065,0.004
16/02/2022,13:32:42,0.195,0.0,1.068,0.003
16/02/2022,13:33:44,0.172,0.0,1.071,0.003
16/02/2022,13:34:51,0.220,1.0,1.075,0.004
16/02/2022,13:35:44,0.182,0.0,1.077,0.002
16/02/2022,13:37:01,0.190,0.0,1.081,0.004
16/02/2022,13:38:44,0.193,0.0,1.087,0.006
16/02/2022,13:39:53,0.171,0.0,1.09,0.003
16/02/2022,13:41:45,0.214,0.0,1.096,0.006
16/02/2022,13:42:44,0.193,0.0,1.1,0.004
16/02/2022,13:43:44,0.171,0.0,1.103,0.003
16/02/2022,13:44:52,0.145,0.0,1.106,0.003
16/02/2022,13:45:44,0.129,0.0,1.108,0.002
16/02/2022,13:46:44,0.137,0.0,1.11,0.002
16/02/2022,13:47:53,0.141,0.0,1.113,0.003
16/02/2022,13:48:43,0.142,0.0,1.115,0.002
16/02/2022,13:50:01,0.182,0.0,1.118,0.003
16/02/2022,13:51:47,0.131,0.0,1.123,0.005
16/02/2022,13:52:45,0.155,0.0,1.125,0.002
16/02/2022,13:53:44,0.131,0.0,1.127,0.002
16/02/2022,13:54:44,0.136,0.0,1.13,0.003
16/02/2022,13:55:44,0.155,0.0,1.132,0.002
16/02/2022,13:56:44,0.141,0.0,1.135,0.003
16/02/2022,13:57:44,0.168,0.0,1.137,0.002
16/02/2022,13:58:45,0.143,0.0,1.14,0.003
16/02/2022,13:59:45,0.131,0.0,1.142,0.002
16/02/2022,14:00:44,0.155,0.0,1.144,0.002
16/02/2022,14:01:44,0.128,0.0,1.147,0.003
16/02/2022,14:02:44,0.123,0.0,1.149,0.002
16/02/2022,14:03:52,0.131,0.0,1.151,0.002
16/02/2022,14:04:42,0.131,0.0,1.153,0.002
16/02/2022,14:05:44,0.121,0.0,1.155,0.002
16/02/2022,14:06:53,0.115,0.0,1.157,0.002
16/02/2022,14:07:41,0.120,0.0,1.159,0.002
16/02/2022,14:08:44,0.132,0.0,1.161,0.002
16/02/2022,14:09:44,0.146,0.0,1.164,0.003
16/02/2022,14:10:44,0.128,0.0,1.166,0.002
16/02/2022,14:11:44,0.160,0.0,1.168,0.002
16/02/2022,14:12:44,0.168,0.0,1.171,0.003
16/02/2022,14:13:45,0.184,0.0,1.174,0.003
16/02/2022,14:14:44,0.207,0.0,1.177,0.003
16/02/2022,14:15:44,0.183,0.0,1.181,0.004
16/02/2022,14:16:44,0.178,0.0,1.183,0.002
16/02/2022,14:17:44,0.161,0.0,1.186,0.003
16/02/2022,14:18:44,0.163,0.0,1.189,0.003
16/02/2022,14:19:58,0.185,0.0,1.192,0.003
16/02/2022,14:21:44,0.145,0.0,1.198,0.006
16/02/2022,14:22:44,0.188,0.0,1.2,0.002
16/02/2022,14:23:43,0.160,0.0,1.204,0.004
16/02/2022,14:24:44,0.161,0.0,1.206,0.002
16/02/2022,14:25:44,0.147,0.0,1.209,0.003
16/02/2022,14:26:44,0.187,0.0,1.211,0.002
16/02/2022,14:27:45,0.133,0.0,1.214,0.003
16/02/2022,14:30:06,0.145,0.0,1.219,0.005
16/02/2022,14:31:50,0.166,0.0,1.223,0.004
16/02/2022,14:32:44,0.161,0.0,1.226,0.003
16/02/2022,14:33:44,0.145,0.0,1.228,0.002
16/02/2022,14:34:43,0.147,0.0,1.231,0.003
16/02/2022,14:35:45,0.144,0.0,1.233,0.002
16/02/2022,14:36:44,0.121,0.0,1.235,0.002
16/02/2022,14:37:44,0.093,0.0,1.237,0.002
16/02/2022,14:39:37,0.087,0.0,1.24,0.003
16/02/2022,14:40:44,0.095,0.0,1.242,0.002
16/02/2022,14:41:45,0.088,0.0,1.243,0.001
16/02/2022,14:43:46,0.085,0.0,1.246,0.003
16/02/2022,14:44:44,0.113,0.0,1.248,0.002
16/02/2022,14:45:44,0.097,0.0,1.249,0.001
16/02/2022,14:46:44,0.101,0.0,1.251,0.002
16/02/2022,14:47:48,0.100,0.0,1.253,0.002
16/02/2022,14:48:44,0.087,0.0,1.254,0.001
16/02/2022,14:49:44,0.085,0.0,1.256,0.002
16/02/2022,14:50:53,0.089,0.0,1.257,0.001
16/02/2022,14:51:43,0.099,0.0,1.259,0.002
16/02/2022,14:52:44,0.110,0.0,1.261,0.002
16/02/2022,14:53:53,0.111,0.0,1.263,0.002
16/02/2022,14:54:43,0.106,0.0,1.264,0.001
16/02/2022,14:55:44,0.075,0.0,1.266,0.002
16/02/2022,14:56:44,0.069,0.0,1.267,0.001
16/02/2022,14:57:43,0.064,0.0,1.268,0.001
16/02/2022,14:58:44,0.056,0.0,1.269,0.001
16/02/2022,14:59:44,0.063,0.0,1.27,0.001
16/02/2022,15:00:45,0.059,0.0,1.271,0.001
16/02/2022,15:01:44,0.055,0.0,1.272,0.001
16/02/2022,15:02:44,0.063,0.0,1.273,0.001
16/02/2022,15:03:44,0.055,0.0,1.274,0.001
16/02/2022,15:04:44,0.059,0.0,1.275,0.001
16/02/2022,15:05:44,0.048,0.0,1.276,0.001
16/02/2022,15:06:44,0.034,0.0,1.276,0.0
16/02/2022,15:07:44,0.035,0.0,1.277,0.001
16/02/2022,15:08:46,0.026,0.0,1.278,0.001
16/02/2022,15:09:44,0.024,0.0,1.278,0.0
16/02/2022,15:10:44,0.030,0.0,1.278,0.0
16/02/2022,15:11:44,0.050,0.0,1.279,0.001
16/02/2022,15:12:45,0.062,0.0,1.28,0.001
16/02/2022,15:13:44,0.054,0.0,1.281,0.001
16/02/2022,15:14:44,0.059,0.0,1.282,0.001
16/02/2022,15:15:44,0.045,0.0,1.283,0.001
16/02/2022,15:16:44,0.045,0.0,1.283,0.0
16/02/2022,15:17:53,0.059,0.0,1.284,0.001
16/02/2022,15:18:43,0.080,0.0,1.285,0.001
16/02/2022,15:19:44,0.067,0.0,1.287,0.002
16/02/2022,15:20:44,0.062,0.0,1.288,0.001
16/02/2022,15:21:44,0.080,0.0,1.289,0.001
16/02/2022,15:22:44,0.060,0.0,1.29,0.001
16/02/2022,15:23:44,0.043,0.0,1.291,0.001
16/02/2022,15:24:45,0.038,0.0,1.292,0.001
16/02/2022,15:25:44,0.055,0.0,1.292,0.0
16/02/2022,15:26:44,0.050,0.0,1.293,0.001
16/02/2022,15:27:45,0.037,0.0,1.294,0.001
16/02/2022,15:28:44,0.042,0.0,1.295,0.001
16/02/2022,15:29:45,0.042,0.0,1.295,0.0
16/02/2022,15:30:52,0.037,0.0,1.296,0.001
16/02/2022,15:31:42,0.041,0.0,1.297,0.001
16/02/2022,15:32:44,0.050,0.0,1.297,0.0
16/02/2022,15:33:52,0.051,0.0,1.298,0.001
16/02/2022,15:34:44,0.041,0.0,1.299,0.001
16/02/2022,15:35:44,0.036,0.0,1.3,0.001
16/02/2022,15:36:53,0.045,0.0,1.3,0.0
16/02/2022,15:37:43,0.042,0.0,1.301,0.001
16/02/2022,15:38:46,0.041,0.0,1.302,0.001
16/02/2022,15:39:52,0.038,0.0,1.302,0.0
16/02/2022,15:40:44,0.042,0.0,1.303,0.001
16/02/2022,15:41:45,0.040,0.0,1.304,0.001
16/02/2022,15:42:52,0.042,0.0,1.304,0.0
16/02/2022,15:43:44,0.041,0.0,1.305,0.001
16/02/2022,15:44:45,0.041,0.0,1.306,0.001
16/02/2022,15:45:44,0.056,0.0,1.307,0.001
16/02/2022,15:46:44,0.044,0.0,1.307,0.0
16/02/2022,15:47:45,0.046,0.0,1.308,0.001
16/02/2022,15:48:44,0.039,0.0,1.309,0.001
16/02/2022,15:49:53,0.034,0.0,1.31,0.001
16/02/2022,15:50:46,0.033,0.0,1.31,0.0
16/02/2022,15:51:44,0.025,0.0,1.311,0.001
16/02/2022,15:52:45,0.028,0.0,1.311,0.0
16/02/2022,15:53:44,0.024,0.0,1.312,0.001
16/02/2022,15:54:45,0.021,0.0,1.312,0.0
16/02/2022,15:55:44,0.022,0.0,1.312,0.0
16/02/2022,15:56:44,0.021,0.0,1.313,0.001
16/02/2022,15:57:44,0.021,0.0,1.313,0.0
16/02/2022,15:58:44,0.023,0.0,1.313,0.0
16/02/2022,15:59:44,0.029,0.0,1.314,0.001
16/02/2022,16:00:53,0.019,0.0,1.314,0.0
16/02/2022,16:01:43,0.015,0.0,1.315,0.001
16/02/2022,16:02:45,0.018,0.0,1.315,0.0
16/02/2022,16:03:52,0.019,0.0,1.315,0.0
16/02/2022,16:04:42,0.020,0.0,1.315,0.0
16/02/2022,16:05:44,0.023,0.0,1.316,0.001
16/02/2022,16:06:44,0.022,0.0,1.316,0.0
16/02/2022,16:07:44,0.021,0.0,1.317,0.001
16/02/2022,16:08:45,0.023,0.0,1.317,0.0
16/02/2022,16:09:44,0.017,0.0,1.317,0.0
16/02/2022,16:10:44,0.015,0.0,1.317,0.0
16/02/2022,16:11:45,0.014,0.0,1.318,0.001
16/02/2022,16:12:44,0.016,0.0,1.318,0.0
16/02/2022,16:13:48,0.015,0.0,1.318,0.0
16/02/2022,16:14:44,0.016,0.0,1.318,0.0
16/02/2022,16:15:44,0.013,0.0,1.319,0.001
16/02/2022,16:16:45,0.013,0.0,1.319,0.0
16/02/2022,16:17:44,0.011,0.0,1.319,0.0
16/02/2022,16:18:44,0.013,0.0,1.319,0.0
16/02/2022,16:19:53,0.015,0.0,1.32,0.001
16/02/2022,16:20:43,0.012,0.0,1.32,0.0
16/02/2022,16:21:44,0.012,0.0,1.32,0.0
16/02/2022,16:22:53,0.009,0.0,1.32,0.0
16/02/2022,16:23:43,0.013,0.0,1.32,0.0
16/02/2022,16:24:45,0.016,0.0,1.321,0.001
16/02/2022,16:25:44,0.015,0.0,1.321,0.0
16/02/2022,16:26:44,0.010,0.0,1.321,0.0
16/02/2022,16:27:44,0.009,0.0,1.321,0.0
16/02/2022,16:28:44,0.009,0.0,1.321,0.0
16/02/2022,16:29:45,0.012,0.0,1.321,0.0
16/02/2022,16:30:44,0.013,0.0,1.322,0.001
16/02/2022,16:31:44,0.010,0.0,1.322,0.0
16/02/2022,16:32:44,0.009,0.0,1.322,0.0
16/02/2022,16:33:45,0.007,0.0,1.322,0.0
16/02/2022,16:34:44,0.008,0.0,1.322,0.0
16/02/2022,16:35:44,0.005,0.0,1.322,0.0
16/02/2022,16:36:44,0.007,0.0,1.322,0.0
16/02/2022,16:37:44,0.008,0.0,1.323,0.001
16/02/2022,16:38:45,0.005,0.0,1.323,0.0
16/02/2022,16:39:45,0.006,0.0,1.323,0.0
16/02/2022,16:40:45,0.005,0.0,1.323,0.0
16/02/2022,16:41:45,0.006,0.0,1.323,0.0
16/02/2022,16:42:44,0.006,0.0,1.323,0.0
16/02/2022,16:43:53,0.005,0.0,1.323,0.0
16/02/2022,16:44:43,0.004,0.0,1.323,0.0
16/02/2022,16:45:44,0.002,0.0,1.323,0.0
16/02/2022,16:46:53,0.001,0.0,1.323,0.0
16/02/2022,16:47:43,0.002,0.0,1.323,0.0
16/02/2022,16:48:45,0.003,0.0,1.323,0.0
16/02/2022,16:49:44,0.003,0.0,1.323,0.0
16/02/2022,16:50:44,0.000,0.0,1.323,0.0
16/02/2022,16:51:44,0.001,0.0,1.323,0.0
16/02/2022,16:52:45,0.001,0.0,1.323,0.0
16/02/2022,16:53:44,0.001,0.0,1.323,0.0
16/02/2022,16:54:44,0.001,0.0,1.323,0.0
16/02/2022,16:55:44,0.000,0.0,1.323,0.0
16/02/2022,16:56:45,0.000,0.0,1.323,0.0
16/02/2022,16:57:44,0.000,0.0,1.323,0.0
16/02/2022,16:58:44,0.003,0.0,1.323,0.0
16/02/2022,16:59:53,-0.000,0.0,1.323,0.0
16/02/2022,17:00:43,0.000,0.0,1.323,0.0
16/02/2022,17:01:45,0.000,0.0,1.323,0.0
16/02/2022,17:02:45,-0.001,0.0,1.323,0.0
16/02/2022,17:03:44,-0.000,0.0,1.323,0.0
16/02/2022,17:04:44,0.001,0.0,1.323,0.0
16/02/2022,17:05:45,0.002,0.0,1.323,0.0
16/02/2022,17:06:46,-0.000,0.0,1.323,0.0
16/02/2022,17:07:44,0.000,0.0,1.323,0.0
16/02/2022,17:08:53,-0.001,0.0,1.323,0.0
16/02/2022,17:09:45,-0.001,0.0,1.323,0.0
16/02/2022,17:10:44,-0.000,0.0,1.323,0.0
16/02/2022,17:11:45,-0.000,0.0,1.323,0.0
16/02/2022,17:12:44,-0.001,0.0,1.323,0.0
16/02/2022,17:13:44,-0.001,0.0,1.323,0.0
16/02/2022,17:14:45,-0.002,0.0,1.323,0.0
16/02/2022,17:15:44,-0.002,0.0,1.323,0.0
16/02/2022,17:16:45,-0.002,0.0,1.323,0.0
16/02/2022,17:17:44,-0.002,0.0,1.323,0.0
16/02/2022,17:18:44,-0.002,0.0,1.323,0.0
16/02/2022,17:19:44,-0.002,0.0,1.323,0.0
16/02/2022,17:20:44,-0.002,0.0,1.323,0.0
16/02/2022,17:21:45,-0.003,0.0,1.323,0.0
16/02/2022,17:22:44,-0.001,0.0,1.323,0.0
16/02/2022,17:23:45,-0.002,0.0,1.323,0.0
16/02/2022,17:24:45,-0.002,0.0,1.323,0.0
16/02/2022,17:25:44,-0.001,0.0,1.323,0.0
16/02/2022,17:26:53,-0.003,0.0,1.323,0.0
16/02/2022,17:27:43,-0.001,0.0,1.323,0.0
16/02/2022,17:28:45,-0.002,0.0,1.323,0.0
16/02/2022,17:29:44,-0.002,0.0,1.323,0.0
16/02/2022,17:30:44,-0.001,0.0,1.323,0.0
16/02/2022,17:31:45,-0.002,0.0,1.323,0.0
16/02/2022,17:32:45,-0.001,0.0,1.323,0.0
16/02/2022,17:33:45,-0.002,0.0,1.323,0.0
16/02/2022,17:34:44,-0.002,0.0,1.323,0.0
16/02/2022,17:35:44,-0.002,0.0,1.323,0.0
16/02/2022,17:36:44,-0.002,0.0,1.323,0.0
16/02/2022,17:37:45,-0.002,0.0,1.323,0.0
16/02/2022,17:38:44,-0.003,0.0,1.323,0.0
16/02/2022,17:39:45,-0.003,0.0,1.323,0.0
16/02/2022,17:40:52,-0.003,0.0,1.323,0.0
16/02/2022,17:41:43,-0.002,0.0,1.323,0.0
16/02/2022,17:42:54,-0.002,0.0,1.323,0.0
16/02/2022,17:43:43,-0.002,0.0,1.323,0.0
16/02/2022,17:44:44,-0.002,0.0,1.323,0.0
16/02/2022,17:46:54,-0.002,0.0,1.323,0.0
16/02/2022,17:48:46,-0.003,0.0,1.323,0.0
16/02/2022,17:50:45,-0.003,0.0,1.323,0.0
16/02/2022,17:51:45,-0.003,0.0,1.323,0.0
16/02/2022,17:52:45,-0.003,0.0,1.323,0.0
16/02/2022,17:53:45,-0.002,0.0,1.323,0.0
16/02/2022,17:54:44,-0.003,0.0,1.323,0.0
16/02/2022,17:55:45,-0.004,0.0,1.323,0.0
16/02/2022,17:56:44,-0.003,0.0,1.323,0.0
16/02/2022,17:57:45,-0.002,0.0,1.323,0.0
16/02/2022,17:58:45,-0.003,0.0,1.323,0.0
16/02/2022,17:59:45,-0.003,0.0,1.323,0.0
16/02/2022,18:00:44,-0.003,0.0,1.323,0.0
16/02/2022,18:01:45,-0.002,0.0,1.323,0.0
16/02/2022,18:02:46,-0.002,0.0,1.323,0.0
16/02/2022,18:03:52,-0.003,0.0,1.323,0.0
16/02/2022,18:05:46,-0.003,0.0,1.323,0.0
16/02/2022,18:07:54,-0.003,0.0,1.323,0.0
16/02/2022,18:08:43,-0.002,0.0,1.323,0.0
16/02/2022,18:09:44,-0.002,0.0,1.323,0.0
16/02/2022,18:10:44,-0.002,0.0,1.323,0.0
16/02/2022,18:11:44,-0.002,0.0,1.323,0.0
16/02/2022,18:12:45,-0.003,0.0,1.323,0.0
16/02/2022,18:13:45,-0.003,0.0,1.323,0.0
16/02/2022,18:14:44,-0.003,0.0,1.323,0.0
16/02/2022,18:15:45,-0.003,0.0,1.323,0.0
16/02/2022,18:16:44,-0.003,0.0,1.323,0.0
16/02/2022,18:17:45,-0.003,0.0,1.323,0.0
16/02/2022,18:18:44,-0.002,0.0,1.323,0.0
16/02/2022,18:19:44,-0.002,0.0,1.323,0.0
16/02/2022,18:20:45,-0.002,0.0,1.323,0.0
16/02/2022,18:21:44,-0.002,0.0,1.323,0.0
16/02/2022,18:22:44,-0.002,0.0,1.323,0.0
16/02/2022,18:23:44,-0.003,0.0,1.323,0.0
16/02/2022,18:24:44,-0.003,0.0,1.323,0.0
16/02/2022,18:25:53,-0.003,0.0,1.323,0.0
16/02/2022,18:26:43,-0.002,0.0,1.323,0.0
16/02/2022,18:27:53,-0.003,0.0,1.323,0.0
16/02/2022,18:28:43,-0.004,0.0,1.323,0.0
16/02/2022,18:29:45,-0.003,0.0,1.323,0.0
16/02/2022,18:30:44,-0.002,0.0,1.323,0.0
16/02/2022,18:31:38,-0.003,0.0,1.323,0.0
16/02/2022,18:32:46,-0.003,0.0,1.323,0.0
16/02/2022,18:33:44,-0.003,0.0,1.323,0.0
16/02/2022,18:34:45,-0.002,0.0,1.323,0.0
16/02/2022,18:35:45,-0.001,0.0,1.323,0.0
16/02/2022,18:36:45,-0.002,0.0,1.323,0.0
16/02/2022,18:37:45,-0.003,0.0,1.323,0.0
16/02/2022,18:38:44,-0.001,0.0,1.323,0.0
16/02/2022,18:39:46,-0.002,0.0,1.323,0.0
16/02/2022,18:40:45,-0.002,0.0,1.323,0.0
16/02/2022,18:41:45,-0.003,0.0,1.323,0.0
16/02/2022,18:42:45,-0.003,0.0,1.323,0.0
16/02/2022,18:43:53,-0.003,0.0,1.323,0.0
16/02/2022,18:44:43,-0.003,0.0,1.323,0.0
16/02/2022,18:45:45,-0.003,0.0,1.323,0.0
16/02/2022,18:46:53,-0.003,0.0,1.323,0.0
16/02/2022,18:47:44,-0.003,0.0,1.323,0.0
16/02/2022,18:48:45,-0.003,0.0,1.323,0.0
16/02/2022,18:49:44,-0.002,0.0,1.323,0.0
16/02/2022,18:50:44,-0.002,0.0,1.323,0.0
16/02/2022,18:51:44,-0.002,0.0,1.323,0.0
16/02/2022,18:52:44,-0.002,0.0,1.323,0.0
16/02/2022,18:53:45,-0.002,0.0,1.323,0.0
16/02/2022,18:54:45,-0.001,0.0,1.323,0.0
16/02/2022,18:55:57,-0.002,0.0,1.323,0.0
16/02/2022,18:57:45,-0.002,0.0,1.323,0.0
16/02/2022,18:58:44,-0.002,0.0,1.323,0.0
16/02/2022,18:59:45,-0.002,0.0,1.323,0.0
16/02/2022,19:00:45,-0.002,0.0,1.323,0.0
16/02/2022,19:01:53,-0.002,0.0,1.323,0.0
16/02/2022,19:02:43,-0.001,0.0,1.323,0.0
16/02/2022,19:03:45,-0.001,0.0,1.323,0.0
16/02/2022,19:04:53,-0.002,0.0,1.323,0.0
16/02/2022,19:05:43,-0.002,0.0,1.323,0.0
16/02/2022,19:06:45,-0.002,0.0,1.323,0.0
16/02/2022,19:07:52,-0.001,0.0,1.323,0.0
16/02/2022,19:08:43,-0.001,0.0,1.323,0.0
16/02/2022,19:09:45,-0.002,0.0,1.323,0.0
16/02/2022,19:10:53,-0.001,0.0,1.323,0.0
16/02/2022,19:11:45,-0.002,0.0,1.323,0.0
16/02/2022,19:12:44,-0.002,0.0,1.323,0.0
16/02/2022,19:13:45,-0.002,0.0,1.323,0.0
16/02/2022,19:14:45,-0.002,0.0,1.323,0.0
16/02/2022,19:15:45,-0.001,0.0,1.323,0.0
16/02/2022,19:16:45,-0.002,0.0,1.323,0.0
16/02/2022,19:17:45,-0.001,0.0,1.323,0.0
16/02/2022,19:18:44,-0.003,0.0,1.323,0.0
16/02/2022,19:19:44,-0.002,0.0,1.323,0.0
16/02/2022,19:20:45,-0.003,0.0,1.323,0.0
16/02/2022,19:21:44,-0.002,0.0,1.323,0.0
16/02/2022,19:22:45,-0.001,0.0,1.323,0.0
16/02/2022,19:23:45,-0.002,0.0,1.323,0.0
16/02/2022,19:24:44,-0.002,0.0,1.323,0.0
